AO-07 1 07530U 74089B 22132.76238722 -.00000034 00000-0 72540-4 0 9990 2 07530 101.9027 112.5226 0012594 109.4518 13.6224 12.53654756173233 UO-11 1 14781U 84021B 22131.96473612 .00000682 00000-0 88725-4 0 9993 2 14781 97.6163 121.0670 0010037 83.1655 277.0702 14.83605565 55638 LO-19 1 20442U 90005G 22132.63213359 .00000106 00000-0 55483-4 0 9994 2 20442 98.7912 96.9522 0010593 274.9095 85.0879 14.33051792688034 HUBBLE 1 20580U 90037B 22132.50155035 .00002290 00000-0 12501-3 0 9993 2 20580 28.4707 47.0006 0002669 11.0052 162.2544 15.10415710561049 MET-2/21 1 22782U 93055A 22132.21306244 .00000041 00000-0 23687-4 0 9990 2 22782 82.5523 43.0002 0023670 89.1343 20.3893 13.83851755449269 AO-27 1 22825U 93061C 22132.62440096 .00000076 00000-0 47345-4 0 9999 2 22825 98.8900 162.8990 0009012 149.8929 210.2772 14.30165410493309 IO-26 1 22826U 93061D 22132.65625531 .00000088 00000-0 51368-4 0 9995 2 22826 98.8844 162.8131 0009758 137.8777 222.3156 14.30509985493544 FO-29 1 24278U 96046B 22131.31416092 -.00000027 00000-0 78639-5 0 9991 2 24278 98.5196 160.1028 0350641 19.8504 341.5898 13.53114554270589 NOAA-15 1 25338U 98030A 22132.70866438 .00000173 00000-0 90499-4 0 9999 2 25338 98.6470 162.7064 0011155 47.2207 312.9909 14.26121634248173 GO-32 1 25397U 98043D 22132.58774411 .00000039 00000-0 36620-4 0 9990 2 25397 98.8152 82.9663 0001114 156.2147 203.9083 14.23749888238549 ISS 1 25544U 98067A 22132.54238162 .00007330 00000-0 13605-3 0 9992 2 25544 51.6432 153.1122 0006817 89.6534 11.1576 15.50041161339656 NO-44 1 26931U 01043C 22132.17045692 .00000082 00000-0 63092-4 0 9997 2 26931 67.0493 152.0498 0007971 268.6922 91.3266 14.30693791 76373 SO-50 1 27607U 02058C 22132.48195182 .00000709 00000-0 11825-3 0 9991 2 27607 64.5561 51.9745 0076376 301.5144 57.8512 14.76072427 43273 CO-55 1 27844U 03031E 22132.55244683 .00000240 00000-0 12748-3 0 9990 2 27844 98.6795 140.7801 0009385 199.1574 160.9252 14.22431971978804 CO-57 1 27848U 03031J 22132.01173190 .00000176 00000-0 99521-4 0 9992 2 27848 98.6843 140.7744 0008981 215.8305 144.2271 14.21991186978531 RS-22 1 27939U 03042A 22132.66541697 .00000667 00000-0 12690-3 0 9993 2 27939 98.1852 273.4064 0011943 325.1122 34.9300 14.67298582995795 NOAA-18 1 28654U 05018A 22132.65258667 .00000122 00000-0 89983-4 0 9990 2 28654 98.9502 203.1145 0015283 74.8994 285.3867 14.12726022875013 CO-58 1 28895U 05043F 22131.82433053 .00000725 00000-0 14642-3 0 9995 2 28895 98.1009 263.7802 0015399 255.1087 104.8411 14.64265268882050 Falconsat-3 1 30776U 07006E 22132.69353479 .00034273 00000-0 57551-3 0 9997 2 30776 35.4306 134.1203 0001714 210.3606 149.7026 15.50778912844023 CO-65 1 32785U 08021C 22132.69223253 .00001828 00000-0 19760-3 0 9993 2 32785 97.6550 104.6832 0012688 0.5845 359.5385 14.89437220761237 AAUSAT2 1 32788U 08021F 22132.68502396 .00004027 00000-0 35317-3 0 9993 2 32788 97.5308 119.2783 0009858 239.1086 120.9167 14.97139669763188 DO-64 1 32789U 08021G 22132.64605542 .00011937 00000-0 68128-3 0 9991 2 32789 97.3419 160.2566 0012818 91.7782 268.4917 15.12819633766616 CO-66 1 32791U 08021J 22132.17434500 .00002316 00000-0 23099-3 0 9995 2 32791 97.6091 109.7170 0011510 317.8063 42.2270 14.92445834761866 RS-30 1 32953U 08025A 22132.72490654 .00000021 00000-0 80971-4 0 9996 2 32953 82.5062 206.1435 0018502 342.0017 18.0403 12.43109674633893 PRISM 1 33493U 09002B 22131.91425446 .00004629 00000-0 38234-3 0 9991 2 33493 98.2325 116.4092 0011318 287.8679 72.1308 14.99463761723505 NOAA-19 1 33591U 09005A 22132.64972604 .00000173 00000-0 11867-3 0 9990 2 33591 99.1511 166.0287 0012874 289.8029 70.1753 14.12561197683398 SRMSAT 1 37841U 11058D 22132.19756705 .00000375 00000-0 60763-4 0 9999 2 37841 19.9711 114.0663 0011677 306.2660 153.9843 14.10747286546333 HRBE 1 37855U 11061F 22132.17272642 .00014216 00000-0 63300-3 0 9997 2 37855 101.7041 232.1080 0156796 171.1748 189.2283 15.11267795576222 RS-40 1 38735U 12041C 22132.18260780 .00000009 00000-0 -68113-5 0 9990 2 38735 82.4719 288.1077 0018092 90.2248 270.0900 12.42585245444016 ZACUBE-1 1 39417U 13066B 22132.18431352 .00001448 00000-0 18281-3 0 9997 2 39417 97.6342 105.3300 0058373 161.9568 198.3735 14.82186542457756 Delfi-N3xt 1 39428U 13066N 22132.56462906 .00003367 00000-0 52409-3 0 9992 2 39428 97.8130 68.4729 0119040 33.3141 327.5484 14.68940653453441 GOMX-1 1 39430U 13066Q 22132.68312943 .00000800 00000-0 15102-3 0 9991 2 39430 97.8112 41.9241 0149946 157.1801 203.6161 14.60079109451079 LO-74 1 39440U 13066AA 22132.68429196 .00001237 00000-0 17488-3 0 9995 2 39440 97.7236 91.7549 0077327 247.1670 112.1361 14.76894874456204 AO-73 1 39444U 13066AE 22132.49696752 .00001822 00000-0 22285-3 0 9993 2 39444 97.6224 108.0294 0057632 149.4461 211.0132 14.83232848456785 SPROUT 1 39770U 14029E 22132.73935020 .00004856 00000-0 50351-3 0 9991 2 39770 97.9357 249.4766 0008466 197.6219 162.4713 14.90444602432349 DTUSAT-2 1 40030U 14033W 22132.58084995 .00001894 00000-0 20325-3 0 9993 2 40030 97.9364 65.2116 0011934 164.2731 195.8859 14.89780185428819 EO-80 1 40032U 14033Y 22132.08217486 .00001699 00000-0 18304-3 0 9990 2 40032 97.9370 64.7241 0011783 166.7461 193.4068 14.89746497428724 HODOYOSHI-1 1 40299U 14070B 22132.69976763 .00004420 00000-0 17169-3 0 9996 2 40299 97.2442 201.8844 0010741 262.5732 254.3892 15.26528843417606 FIREBIRD FU3 1 40377U 15003B 22132.17960591 .00016610 00000-0 51380-3 0 9992 2 40377 99.1066 349.0355 0104406 147.6555 213.1138 15.28335718402885 FIREBIRD FU4 1 40378U 15003C 22131.55273960 .00015275 00000-0 47189-3 0 9999 2 40378 99.1071 348.4717 0104372 149.4565 211.2804 15.28403913402781 GRIFEX 1 40379U 15003D 22132.50820902 .00012467 00000-0 45086-3 0 9994 2 40379 99.1164 335.9413 0118004 187.2172 172.7366 15.22217599402163 XW-2A 1 40903U 15049E 22132.69805939 .00018470 00000-0 30940-3 0 9993 2 40903 97.1821 191.2116 0008597 244.1635 214.8834 15.51862041373715 XW-2C 1 40906U 15049H 22132.69843516 .00004778 00000-0 23329-3 0 9998 2 40906 97.4940 136.4077 0015689 120.0863 1.0138 15.18643729367499 XW-2D 1 40907U 15049J 22132.66862221 .00005688 00000-0 27249-3 0 9996 2 40907 97.4932 136.3306 0015185 116.1409 355.4498 15.19230172367533 LILACSAT-2 1 40908U 15049K 22132.70839484 .00002659 00000-0 14334-3 0 9993 2 40908 97.5169 133.6528 0016616 136.1268 312.4343 15.15547996367070 XW-2E 1 40909U 15049L 22132.73748525 .00008775 00000-0 37757-3 0 9991 2 40909 97.4661 140.8492 0014524 100.1593 17.8512 15.22769177367973 XW-2F 1 40910U 15049M 22132.71837948 .00008644 00000-0 37760-3 0 9998 2 40910 97.4737 139.9560 0015373 100.3761 16.1424 15.22247104367746 XW-2B 1 40911U 15049N 22132.69345141 .00005471 00000-0 26307-3 0 9995 2 40911 97.4921 136.9683 0015064 117.2146 6.9170 15.19122688367421 DCBB 1 40912U 15049P 22132.72272704 .00010161 00000-0 40582-3 0 9997 2 40912 97.4391 144.3131 0015113 72.1566 16.4561 15.25230893368307 TW-1A 1 40928U 15051D 22132.72368171 .00034057 00000-0 47549-3 0 9991 2 40928 97.0432 155.7541 0010093 146.4575 325.0863 15.56745271372678 IO-86 1 40931U 15052B 22132.59017780 .00000784 00000-0 19940-4 0 9993 2 40931 5.9935 64.8511 0012888 19.1927 340.8728 14.76790452358037 ATHENOXAT-1 1 41168U 15077C 22132.80083389 .00012892 00000-0 54579-3 0 9994 2 41168 14.9861 354.5274 0009454 96.0665 344.1445 15.19986700354873 ChubuSat-2 1 41338U 16012B 22132.69640781 .00002037 00000-0 14813-3 0 9992 2 41338 31.0025 251.5496 0013390 157.8123 202.3094 15.01228508342109 ChubuSat-3 1 41339U 16012C 22132.69120651 .00001867 00000-0 13491-3 0 9993 2 41339 31.0114 248.5322 0013102 165.7358 194.3650 15.01320048342102 Horyu-4 1 41340U 16012D 22132.64786623 .00003381 00000-0 23823-3 0 9990 2 41340 31.0041 227.7582 0013415 203.8386 156.1630 15.03064881342333 e-st@r-II 1 41459U 16025D 22132.71363442 .00009349 00000-0 41142-3 0 9997 2 41459 98.1827 295.2458 0147326 31.0948 329.8897 15.12777488332096 AAUSAT4 1 41460U 16025E 22132.43653502 .00013757 00000-0 54407-3 0 9993 2 41460 98.1780 300.8349 0128512 9.1800 351.1710 15.18203897332475 LO-87 1 41557U 16033B 22132.77276381 .00011992 00000-0 36915-3 0 9995 2 41557 97.3850 230.4367 0012659 141.6881 318.6862 15.33718594331910 NuSat2 1 41558U 16033C 22132.78045231 .00011264 00000-0 32592-3 0 9994 2 41558 97.4042 235.9474 0011921 131.9120 329.8259 15.35701551332173 Lapan A3 1 41603U 16040E 22132.76945575 .00001210 00000-0 58199-4 0 9993 2 41603 97.2097 171.3468 0011441 288.9314 161.9877 15.20557314326616 Pratham 1 41783U 16059A 22132.11863541 .00000380 00000-0 82018-4 0 9997 2 41783 97.9168 175.1226 0032026 289.4844 70.2900 14.63318945300310 TY-1 1 41844U 16066D 22132.71526457 .00011819 00000-0 41461-3 0 9996 2 41844 97.3915 144.9002 0015110 60.8369 28.9119 15.29479459306146 CAS-2T 1 41847U 16066G 22132.17451306 .00000429 00000-0 75353-4 0 9992 2 41847 98.5529 196.8758 0363226 318.5451 38.8692 14.38535337289138 EO-88 1 42017U 17008BX 22132.16709589 .00015407 00000-0 47964-3 0 9995 2 42017 97.2714 198.8328 0005170 35.9417 324.2173 15.33363245291512 CAS-4B 1 42759U 17034B 22132.81204861 .00002915 00000-0 18140-3 0 9996 2 42759 43.0163 169.1157 0007738 57.4456 279.2476 15.11622649270959 CAS-4A 1 42761U 17034D 22132.81921137 .00002838 00000-0 17656-3 0 9996 2 42761 43.0166 167.8898 0008216 59.3284 109.6569 15.11713423270965 NIUSat 1 42766U 17036B 22132.00367859 .00008145 00000-0 32172-3 0 9996 2 42766 97.2058 171.1362 0015846 97.2737 263.0303 15.25644606271240 Aalto 1 1 42775U 17036L 22132.09117681 .00006137 00000-0 24752-3 0 9995 2 42775 97.2015 171.2011 0014640 96.0518 264.2390 15.25061208271239 URSA MAIOR 1 42776U 17036M 22132.01906565 .00006811 00000-0 27040-3 0 9997 2 42776 97.2029 171.8248 0014333 95.5794 264.7080 15.25554939271253 Max Valier Sat 1 42778U 17036P 22132.60262500 .00009145 00000-0 35402-3 0 9992 2 42778 97.2095 174.9433 0013150 95.1595 265.1145 15.26317166271436 Pegasus 1 42784U 17036V 22132.10854049 .00009730 00000-0 35773-3 0 9990 2 42784 97.2031 175.2305 0012332 98.1221 262.1418 15.28019198271464 NUDATSat 1 42787U 17036Y 22132.79004613 .00017650 00000-0 56882-3 0 9996 2 42787 97.2064 179.7293 0010967 87.1015 273.1476 15.32179823271631 SUCHAI 1 1 42788U 17036Z 22132.60229601 .00014550 00000-0 50858-3 0 9996 2 42788 97.2039 177.2455 0011628 93.3848 266.8723 15.29585286271707 SKCUBE 1 42789U 17036AA 22131.33904255 .00010252 00000-0 36675-3 0 9997 2 42789 97.2038 175.5287 0011716 97.8518 262.4053 15.28911154271403 VZLUSAT 1 1 42790U 17036AB 22131.55378285 .00015509 00000-0 50264-3 0 9991 2 42790 97.2066 178.5012 0010452 92.3210 267.9229 15.32031965271593 VENTA 1 1 42791U 17036AC 22131.35887207 .00008681 00000-0 31551-3 0 9990 2 42791 97.2038 175.4646 0011474 98.1735 262.0807 15.28441105271395 Robusta 1B 1 42792U 17036AD 22132.09152169 .00010973 00000-0 38669-3 0 9999 2 42792 97.2036 176.7935 0011245 95.7130 264.5393 15.29389978271563 D-SAT 1 42794U 17036AF 22132.01033813 .00001109 00000-0 98760-4 0 9997 2 42794 97.4524 139.3501 0122793 206.5006 152.9902 14.92444926266078 TechnoSat 1 42829U 17042E 22132.60134042 .00001265 00000-0 13048-3 0 9992 2 42829 97.4256 348.8263 0015337 123.7553 236.5130 14.91758287262742 QIKCOM-1 1 42983U 98067NF 22132.12412250 .00102053 00000-0 35292-3 0 9998 2 42983 51.6329 13.5484 0004235 162.2913 197.8241 15.88694559259140 AO-91 1 43017U 17073E 22132.70512001 .00004046 00000-0 30984-3 0 9990 2 43017 97.6794 28.3541 0248196 305.1520 52.6663 14.81160167241828 PICSAT 1 43132U 18004X 22132.15304060 .00014513 00000-0 49589-3 0 9997 2 43132 97.3730 208.7523 0009324 125.3724 234.8390 15.30352688240852 AO-92 1 43137U 18004AC 22131.44758568 .00007924 00000-0 28723-3 0 9994 2 43137 97.3698 206.9542 0009334 129.4464 230.7603 15.28589308240690 TianYi 2 1 43155U 18008A 22132.70434922 .00006125 00000-0 33256-3 0 9992 2 43155 97.3547 192.2577 0014694 267.8200 188.6892 15.14793313237862 Zhou Enlai 1 43156U 18008B 22132.71417543 .00006358 00000-0 34783-3 0 9998 2 43156 97.3597 192.1328 0012057 268.3307 188.0106 15.14536992237798 TianYi 6 1 43158U 18008D 22132.67785053 .00005595 00000-0 31470-3 0 9991 2 43158 97.3550 190.1482 0011307 269.6749 208.6138 15.13603244237696 S-Net D 1 43186U 18014G 22132.62150830 .00002453 00000-0 21375-3 0 9996 2 43186 97.6611 39.0448 0012517 63.8136 296.4372 14.97756145233555 S-Net B 1 43187U 18014H 22132.68841029 .00002446 00000-0 21311-3 0 9992 2 43187 97.6607 39.0636 0012537 63.5156 296.7351 14.97755116233569 S-Net A 1 43188U 18014J 22132.62186292 .00002441 00000-0 21274-3 0 9994 2 43188 97.6612 39.0596 0012542 63.7502 296.5007 14.97754011233552 S-Net C 1 43189U 18014K 22132.62251852 .00002474 00000-0 21553-3 0 9996 2 43189 97.6607 38.9883 0012564 63.5347 296.7162 14.97752807232108 FMN 1 1 43192U 18015A 22132.69988731 .00025087 00000-0 70789-3 0 9991 2 43192 97.5301 276.9036 0012589 158.4994 297.7866 15.36302586237954 Shaonian Xing 1 43199U 18015H 22132.67977034 .00015544 00000-0 48815-3 0 9992 2 43199 97.5073 272.3989 0014634 165.9330 252.5845 15.32997278237965 SurfSat 1 43614U 18070B 22132.70863312 .00037551 00000-0 61376-3 0 9991 2 43614 93.0288 83.5976 0013725 141.4403 218.7841 15.52312998205512 CP-7 DAVE 1 43615U 18070C 22132.37013030 .00031580 00000-0 53416-3 0 9991 2 43615 93.0305 83.3332 0013761 144.2596 215.9589 15.51373990205438 ELFIN-B 1 43616U 18070D 22132.62826309 .00069259 00000-0 80398-3 0 9994 2 43616 93.0202 84.4063 0013868 132.8143 227.4292 15.61429424205756 ELFIN-A 1 43617U 18070E 22132.61225279 .00072950 00000-0 79570-3 0 9995 2 43617 93.0275 85.6687 0013567 128.4287 231.8201 15.63032693205791 CubeBel-1 1 43666U 18083E 22132.71968608 .00008591 00000-0 37250-3 0 9993 2 43666 97.4237 161.8204 0015402 99.1505 10.3866 15.22501581196046 Changshagaoxin 1 43669U 18083H 22132.79665683 .00007911 00000-0 35920-3 0 9998 2 43669 97.4180 157.9829 0011959 96.4142 18.0376 15.20990359195880 Ten-Koh 1 43677U 18084G 22132.64399880 .00001369 00000-0 14405-3 0 9991 2 43677 97.9585 262.3829 0016468 33.9149 326.3118 14.90991461192345 PO-101 1 43678U 18084H 22132.70708050 .00000428 00000-0 47871-4 0 9991 2 43678 97.9639 265.5662 0010946 48.5458 311.6701 14.92095586192526 IRVINE 01 1 43693U 18088D 22131.99543430 .00027068 00000-0 79117-3 0 9997 2 43693 85.0297 335.5242 0011284 240.1868 119.8260 15.35088201194629 QO-100 1 43700U 18090A 22132.70489861 .00000155 00000-0 00000+0 0 9995 2 43700 0.0507 89.9547 0002521 349.3838 70.6659 1.00271815 12919 Reaktor Hello World 1 43743U 18096AA 22131.46749358 .00010174 00000-0 32096-3 0 9996 2 43743 97.3532 211.5146 0015802 186.4762 173.6278 15.32936370192298 MinXSS-2 1 43758U 18099A 22132.16009140 .00002183 00000-0 19360-3 0 9991 2 43758 97.6265 200.9545 0015881 32.7611 327.4593 14.97127080187673 AO-95 1 43770U 18099N 22132.14570413 .00002703 00000-0 24406-3 0 9994 2 43770 97.6233 199.4387 0015265 43.6834 316.5593 14.96234905187585 RANGE-B 1 43772U 18099Q 22132.15472518 .00002855 00000-0 25387-3 0 9991 2 43772 97.6343 201.0383 0014432 30.7957 329.4108 14.96804869187603 RANGE-A 1 43773U 18099R 22132.66052573 .00002175 00000-0 19924-3 0 9998 2 43773 97.6154 198.8778 0013827 29.8583 330.3424 14.95883067187648 MOVE-II 1 43780U 18099Y 22132.13498920 .00004522 00000-0 39335-3 0 9994 2 43780 97.6262 200.4643 0013686 41.1985 319.0268 14.97380524187623 SNUSat 2 1 43782U 18099AA 22132.13010819 .00002688 00000-0 24183-3 0 9999 2 43782 97.6228 199.8747 0012899 30.9870 329.2110 14.96411876187608 SnugLite 1 43784U 18099AC 22132.17264697 .00002202 00000-0 19788-3 0 9997 2 43784 97.6186 199.5647 0015262 34.9738 325.2483 14.96602456187631 ITASat 1 1 43786U 18099AE 22132.14283085 .00002503 00000-0 22539-3 0 9990 2 43786 97.6255 200.3340 0015691 36.3401 323.8883 14.96408322187623 EAGLET 1 1 43790U 18099AJ 22132.17636198 .00001373 00000-0 12533-3 0 9992 2 43790 97.6242 200.8921 0013838 38.5406 321.6801 14.96613219187364 ESEO 1 43792U 18099AL 22132.16473815 .00000395 00000-0 40121-4 0 9996 2 43792 97.6200 200.1505 0014014 36.4401 323.7772 14.96113161187406 CSIM 1 43793U 18099AM 22132.19171771 .00004052 00000-0 34707-3 0 9992 2 43793 97.6259 201.3688 0012467 32.7165 327.4827 14.98051752187458 Astrocast 0.1 1 43798U 18099AS 22132.18337315 .00003652 00000-0 31927-3 0 9990 2 43798 97.6249 201.3066 0011882 16.7311 343.4301 14.97316126187685 JO-97 1 43803U 18099AX 22132.17207938 .00002266 00000-0 20226-3 0 9993 2 43803 97.6210 200.1096 0015252 33.8725 326.3468 14.96850379187646 Suomi 100 1 43804U 18099AY 22132.18770140 .00002556 00000-0 22799-3 0 9994 2 43804 97.6202 200.0535 0015269 35.1936 325.0292 14.96766218187652 Al Farabi 2 1 43805U 18099AZ 22132.78926099 .00003006 00000-0 26387-3 0 9995 2 43805 97.6220 201.0847 0015145 31.7334 328.4792 14.97265272187766 CHOMPTT 1 43855U 18104G 22132.14523846 .00008815 00000-0 33091-3 0 9993 2 43855 85.0355 75.3418 0016752 23.1663 337.0333 15.26906365189185 ISAT 1 43879U 18111D 22131.78967181 .00002295 00000-0 20029-3 0 9993 2 43879 97.6675 38.0645 0013993 83.1443 277.1370 14.97732734184183 UWE-4 1 43880U 18111E 22132.73223879 .00002780 00000-0 24054-3 0 9991 2 43880 97.6701 39.6674 0013160 81.7707 278.5007 14.97912132182358 Sparrow 1 43881U 18111F 22132.61933816 .00003757 00000-0 32211-3 0 9997 2 43881 97.6719 39.7684 0014211 81.1684 279.1147 14.98042875182346 Lume 1 1 43908U 18111AJ 22132.67124509 .00009466 00000-0 33067-3 0 9997 2 43908 97.1967 21.6133 0018233 195.4158 164.6530 15.29618339187920 FO-99 1 43937U 19003F 22132.33500596 .00011012 00000-0 38254-3 0 9990 2 43937 97.1344 167.1072 0018848 282.9499 76.9637 15.29745163184455 MYSat 1 1 44045U 18092F 22132.62753968 .00043393 00000-0 72258-3 0 9992 2 44045 51.6329 251.0635 0010391 324.4102 35.6193 15.51522621182308 AstroCast 0.2 1 44083U 19018F 22132.63439003 .00006206 00000-0 24437-3 0 9993 2 44083 97.3253 192.2036 0009931 250.2131 109.8037 15.25926613173020 AISTechSat 3 1 44103U 19018AB 22132.64936138 .00008645 00000-0 32981-3 0 9990 2 44103 97.3116 192.6153 0010659 259.2546 100.7494 15.26855472173182 AISat 1 1 44104U 19018AC 22132.18886733 .00006513 00000-0 18740-3 0 9994 2 44104 97.3958 215.1995 0051442 262.5754 96.9642 15.34800866174037 Prox-1 1 44339U 19036A 22132.18235631 .00003454 00000-0 74125-3 0 9999 2 44339 24.0009 62.4203 0011202 177.1230 182.9327 14.54806884153159 Oculus-ASR 1 44348U 19036K 22132.56064533 .00050649 -59191-5 51297-3 0 9996 2 44348 28.5053 79.1608 0256931 269.8334 87.2823 15.31922395159027 Armadillo 1 44352U 19036P 22132.73565445 .00178935 16563-5 11385-2 0 9995 2 44352 28.5249 12.6515 0167551 14.4881 346.0452 15.58087020159657 NO-104 1 44354U 19036R 22132.50165045 .00057676 -57376-5 55974-3 0 9993 2 44354 28.5282 66.7027 0247865 286.9030 70.4533 15.34620845159136 Move-IIb 1 44398U 19038N 22132.83238515 .00009410 00000-0 46792-3 0 9999 2 44398 97.6256 101.8865 0019628 250.8628 109.0482 15.17690164157637 SONATE 1 44400U 19038Q 22132.84443482 .00004258 00000-0 23515-3 0 9998 2 44400 97.6376 101.2056 0021956 254.8934 104.9874 15.14277705157549 BeeSat 9 1 44412U 19038AC 22132.16215529 .00007056 00000-0 36705-3 0 9999 2 44412 97.6328 101.2060 0018363 258.8667 101.0501 15.16226574157195 JAISAT-1 1 44419U 19038F 22132.15925636 .00007003 00000-0 35960-3 0 9996 2 44419 97.6330 102.0122 0017328 255.7789 104.1519 15.16702024157556 LightSail-2 1 44420U 19036AC 22132.71907629 .00055067 00000-0 79517-2 0 9998 2 44420 24.0016 5.7471 0017366 267.2216 92.6293 14.74722823151910 Taurus 1 1 44530U 19059C 22132.67158177 .00002142 00000-0 60215-3 0 9998 2 44530 98.5442 230.8461 0012973 221.1410 138.8807 14.46896097140674 Duchifat 3 1 44854U 19089C 22132.78324455 .00003193 00000-0 25262-3 0 9996 2 44854 36.9676 311.7760 0009563 296.1167 63.8594 15.00797817132572 OPS-SAT 1 44878U 19092F 22132.77259742 .00008843 00000-0 41969-3 0 9990 2 44878 97.4803 317.0457 0014135 104.7520 255.5282 15.19405037132778 TO-108 1 44881U 19093C 22132.65209509 .00000511 00000-0 71532-4 0 9992 2 44881 97.8920 212.3734 0013848 306.3072 53.6868 14.81678401129478 FloripaSat 1 1 44885U 19093G 22132.65378358 .00001665 00000-0 21128-3 0 9991 2 44885 97.8959 213.5637 0013200 312.7692 47.2411 14.82986076129542 RS-44 1 44909U 19096E 22132.07132242 -.00000005 00000-0 -68443-4 0 9998 2 44909 82.5213 254.4411 0218004 45.0406 316.8144 12.79713173110903 Phoenix 1 45258U 98067RB 22131.98114246 .00224026 00000-0 76528-3 0 9995 2 45258 51.6300 105.1382 0007556 66.8191 293.3610 15.88554124126641 BY70-2 1 45857U 20042B 22132.78616671 .00006059 00000-0 82116-3 0 9990 2 45857 97.9542 209.9789 0010026 221.6905 138.3538 14.79254925100184 UPMSat 2 1 46276U 20061E 22132.64661062 .00003623 00000-0 18213-3 0 9997 2 46276 97.3933 204.2904 0000524 43.5811 316.5464 15.17873901 93446 AmicalSat 1 46287U 20061R 22132.15900265 .00004817 00000-0 28209-3 0 9998 2 46287 97.4480 202.7707 0003668 65.5038 294.6575 15.12269264 92980 SALSAT 1 46495U 20068K 22131.78119732 .00002608 00000-0 19110-3 0 9992 2 46495 97.7273 73.0794 0017639 45.4657 314.8006 15.04316695 88673 BY70-3 1 46839U 20079N 22132.73398318 .00018507 00000-0 46001-3 0 9995 2 46839 97.1998 205.3308 0007506 107.4424 351.2306 15.40324389 84748 SPOC 1 46921U 98067RR 22132.08468320 .00156885 00000-0 71263-3 0 9998 2 46921 51.6289 118.7366 0005799 55.0922 305.0625 15.82869600 86213 Neutron-1 1 46923U 98067RT 22132.31655617 .00179840 00000-0 81829-3 0 9998 2 46923 51.6299 118.0480 0005583 52.2370 307.9138 15.82766581 86273 CAPE 3 1 47309U 21002A 22132.73585849 .00008646 00000-0 36376-3 0 9999 2 47309 60.6829 138.8441 0015665 293.6494 66.2949 15.24015579 73000 AO-109 1 47311U 21002C 22132.14575516 .00007308 00000-0 30426-3 0 9991 2 47311 60.6848 138.8625 0011269 290.7275 69.2604 15.24620553 72935 MiTEE 1 1 47314U 21002F 22131.71747712 .00012793 00000-0 46287-3 0 9991 2 47314 60.6818 134.9011 0010088 270.5831 89.4103 15.28750962 72977 ExoCube 2 1 47319U 21002L 22132.19980821 .00006475 00000-0 27418-3 0 9994 2 47319 60.6829 139.6361 0012853 293.5572 66.4165 15.24194006 72883 UVSQ-SAT 1 47438U 21006AB 22132.62538075 .00006134 00000-0 32928-3 0 9992 2 47438 97.4403 192.3765 0012936 46.8202 313.4109 15.15218640 71856 YUSAT 1 1 47439U 21006AC 22132.60489554 .00006970 00000-0 37008-3 0 9990 2 47439 97.4408 192.4270 0012647 47.1390 313.0902 15.15561994 71855 SOMP 2b 1 47445U 21006AJ 22132.61652829 .00005797 00000-0 31387-3 0 9995 2 47445 97.4373 192.0634 0012709 50.7509 309.4849 15.14940581 71844 IDEASSat 1 47458U 21006AX 22132.13219799 .00005088 00000-0 27739-3 0 9990 2 47458 97.4464 192.0522 0011809 51.0923 309.1360 15.14766273 71769 RSP-01 1 47925U 98067SB 22132.16865168 .00251918 00000-0 10086-2 0 9991 2 47925 51.6306 127.5657 0007026 53.0468 307.1178 15.85249614 66086 Tsuru 1 47927U 98067SD 22131.04702293 .00137611 00000-0 79184-3 0 9996 2 47927 51.6333 136.5953 0006455 44.9957 315.1565 15.77760239 65860 Maya-2 1 47929U 98067SF 22132.18823934 .00142389 00000-0 81518-3 0 9992 2 47929 51.6332 130.7140 0006269 51.7447 308.4117 15.77859573 66003 GuaraniSat-1 1 47931U 98067SH 22132.36284420 .00151460 00000-0 85238-3 0 9999 2 47931 51.6308 129.6471 0006019 51.4037 308.7502 15.78214670 66070 CubeSX-Sirius-HSE 1 47951U 21022V 22132.76891045 .00003638 00000-0 24518-3 0 9996 2 47951 97.5349 33.0387 0019460 268.6064 91.2928 15.07143870 62624 CubeSX-HSE 1 47952U 21022W 22132.75753059 .00003314 00000-0 22347-3 0 9997 2 47952 97.5333 33.0442 0019173 268.3504 91.5522 15.07195756 62620 KSU-Cubesat 1 47954U 21022Y 22132.66071596 .00004695 00000-0 31304-3 0 9994 2 47954 97.5351 33.0353 0018962 267.7020 92.2037 15.07403309 62337 GRBAlpha 1 47959U 21022AD 22132.75617450 .00003334 00000-0 22468-3 0 9994 2 47959 97.5331 33.0765 0019134 269.1292 90.7745 15.07215227 61446 Orbicraft-Zorkiy 1 47960U 21022AE 22132.73416468 .00003921 00000-0 26255-3 0 9990 2 47960 97.5343 33.1692 0019211 268.9455 90.9608 15.07337958 62138 STECCO 1 47962U 21022AG 22132.74657477 .00005908 00000-0 37549-3 0 9995 2 47962 97.5320 33.7665 0014161 262.3669 184.2654 15.09126426 61488 DO-111 1 47963U 21022AH 22132.63172386 .00015624 00000-0 90333-3 0 9991 2 47963 97.5363 34.4309 0014857 254.5181 105.4409 15.12271643 61538 MO-110 1 47964U 21022AJ 22132.71741819 .00006582 00000-0 41344-3 0 9995 2 47964 97.5347 33.9647 0016626 257.7073 102.2294 15.09487182 61496 FEES 1 48082U 21022AL 22132.19507411 .00008763 00000-0 54511-3 0 9990 2 48082 97.5353 33.3367 0012827 255.9158 104.0645 15.09791461 61118 RamSat 1 48850U 98067SL 22132.20771415 .00056777 00000-0 56369-3 0 9996 2 48850 51.6366 142.1175 0004505 358.3245 1.7734 15.65193735 51642 TUBIN 1 48900U 21059X 22132.75389848 .00003918 00000-0 22174-3 0 9990 2 48900 97.5477 262.3581 0009345 220.0804 276.2085 15.13600756 48518 IT-SPINS 1 49017U 21013G 22131.52375624 .00007410 00000-0 29836-3 0 9994 2 49017 51.5950 216.3485 0008651 306.7841 53.2342 15.25836159 48147 LEDSAT 1 49069U 21073D 22132.43214087 .00003962 00000-0 25659-3 0 9990 2 49069 97.5249 206.0378 0028426 60.0992 300.3054 15.08378077 40409 CUTE 1 49263U 21088D 22132.57707679 .00004059 00000-0 30661-3 0 9998 2 49263 97.5919 201.2189 0020748 177.7508 182.3814 15.02772157 34039 Binar-1 1 49272U 98067SR 22132.40362670 .00060536 00000-0 61798-3 0 9996 2 49272 51.6349 144.9022 0002662 71.8310 288.2975 15.64471741 34011 Maya-3 1 49273U 98067SS 22132.14765912 .00101970 00000-0 83668-3 0 9992 2 49273 51.6343 143.9381 0004505 54.1797 305.9618 15.69648927 34001 Maya-4 1 49274U 98067ST 22132.16157975 .00100244 00000-0 83271-3 0 9992 2 49274 51.6340 144.0278 0004540 54.9673 305.1750 15.69358096 34000 CUAVA-1 1 49275U 98067SU 22132.76267808 .00067132 00000-0 61275-3 0 9994 2 49275 51.6381 141.6780 0002994 58.9184 113.0074 15.67226447 34039 TeikyoSat 4 1 49396U 21102B 22132.61600813 .00000784 00000-0 66636-4 0 9992 2 49396 97.5296 191.8186 0017639 29.7957 330.4267 15.00535321 27672 Z-Sat 1 49399U 21102E 22132.66820989 .00000849 00000-0 68278-4 0 9994 2 49399 97.5379 192.4329 0023558 355.4216 4.6790 15.02417174 27710 KOSEN 1 1 49402U 21102H 22132.42223794 .00002020 00000-0 15211-3 0 9995 2 49402 97.5337 192.2871 0021572 349.0616 11.0138 15.03437002 27694 HO-113 1 50466U 21131B 22132.69792310 .00000152 00000-0 64480-4 0 9990 2 50466 98.5807 209.9676 0003434 245.4224 114.6605 14.38481253 19772 Tevel 1 50999U 22002R 22132.71327154 .00006845 00000-0 37678-3 0 9995 2 50999 97.4818 200.3676 0011861 175.1803 283.9293 15.14297535 18015 Grizu-263a 1 51025U 22002AT 22132.17659912 .00012446 00000-0 65553-3 0 9993 2 51025 97.5003 200.2417 0013829 182.8626 177.2530 15.15666968 17940 NO-116 1 51031U 22002AZ 22132.65554561 .00010417 00000-0 55869-3 0 9992 2 51031 97.4957 200.6048 0013817 181.4267 178.6928 15.15072011 18016 IRIS-A 1 51044U 22002BN 22132.63029256 .00003924 00000-0 22512-3 0 9996 2 51044 97.4843 200.1603 0009532 178.5839 181.5421 15.13101400 17997 DELFI-PQ 1 51074U 22002CU 22132.15403658 .00009588 00000-0 49402-3 0 9997 2 51074 97.5080 200.5506 0013683 213.9156 146.1203 15.16516542 17959 SO-115 1 51080U 22002DA 22132.17471458 .00007258 00000-0 38129-3 0 9995 2 51080 97.5099 200.5436 0013216 213.4822 146.5577 15.15925724 17958 SO-114 1 51081U 22002DB 22131.97728557 .00006625 00000-0 34835-3 0 9995 2 51081 97.5087 200.3338 0013544 214.0499 145.9866 15.15922510 17927 GASPACS 1 51439U 98067TB 22129.34954256 .00453457 00000-0 20273-2 0 9990 2 51439 51.6288 160.4669 0014458 34.2958 325.8975 15.82307313 16097 /EX
